Time,TemperatureF,DewpointF,PressureIn,WindDirection,WindDirectionDegrees,WindSpeedMPH,WindSpeedGustMPH,Humidity,HourlyPrecipIn,Conditions,Clouds,dailyrainin,SoftwareType,DateUTC
2013-06-02 00:01:00,54.0,48.3,30.15,SSW,201,2.0,4.0,81,0.00,,---,0.01,VWS V14.01,2013-06-02 05:01:00,
2013-06-02 00:06:00,53.8,48.1,30.15,SSW,201,2.0,5.0,81,0.00,,---,0.00,VWS V14.01,2013-06-02 05:06:00,
2013-06-02 00:11:00,53.6,48.2,30.16,SSE,149,0.0,5.0,82,0.00,,---,0.00,VWS V14.01,2013-06-02 05:11:00,
2013-06-02 00:16:00,53.3,48.0,30.16,SSE,150,0.0,5.0,82,0.00,,---,0.00,VWS V14.01,2013-06-02 05:16:00,
2013-06-02 00:21:00,53.1,47.8,30.16,South,170,0.0,5.0,82,0.00,,---,0.00,VWS V14.01,2013-06-02 05:21:00,
2013-06-02 00:26:00,52.9,47.9,30.16,SSE,149,0.0,5.0,83,0.00,,---,0.00,VWS V14.01,2013-06-02 05:26:00,
2013-06-02 00:31:00,52.6,47.6,30.16,SSE,148,0.0,5.0,83,0.00,,---,0.00,VWS V14.01,2013-06-02 05:31:00,
2013-06-02 00:36:00,52.4,47.7,30.16,SE,142,2.0,2.0,84,0.00,,---,0.00,VWS V14.01,2013-06-02 05:36:00,
2013-06-02 00:41:00,52.2,47.5,30.16,SE,142,0.0,2.0,84,0.00,,---,0.00,VWS V14.01,2013-06-02 05:41:00,
2013-06-02 00:46:00,52.0,47.6,30.16,SSE,165,1.0,3.0,85,0.00,,---,0.00,VWS V14.01,2013-06-02 05:46:00,
2013-06-02 00:51:00,51.9,47.5,30.16,SSE,163,0.0,3.0,85,0.00,,---,0.00,VWS V14.01,2013-06-02 05:51:00,
2013-06-02 00:56:00,51.8,47.4,30.16,SSE,160,0.0,3.0,85,0.00,,---,0.00,VWS V14.01,2013-06-02 05:56:00,
2013-06-02 01:01:00,51.7,47.7,30.16,SSE,168,0.0,3.0,86,0.00,,---,0.00,VWS V14.01,2013-06-02 06:01:00,
2013-06-02 01:06:00,51.5,47.5,30.16,South,172,0.0,2.0,86,0.00,,---,0.00,VWS V14.01,2013-06-02 06:06:00,
2013-06-02 01:11:00,51.3,47.3,30.16,SSE,168,0.0,2.0,86,0.00,,---,0.00,VWS V14.01,2013-06-02 06:11:00,
2013-06-02 01:16:00,51.1,47.4,30.16,South,177,0.0,2.0,87,0.00,,---,0.00,VWS V14.01,2013-06-02 06:16:00,
2013-06-02 01:21:00,50.9,47.2,30.16,South,175,0.0,2.0,87,0.00,,---,0.00,VWS V14.01,2013-06-02 06:21:00,
2013-06-02 01:26:00,50.7,47.0,30.16,South,175,1.0,2.0,87,0.00,,---,0.00,VWS V14.01,2013-06-02 06:26:00,
2013-06-02 01:31:00,50.6,47.2,30.16,South,175,0.0,2.0,88,0.00,,---,0.00,VWS V14.01,2013-06-02 06:31:00,
2013-06-02 01:36:00,50.5,47.1,30.16,South,175,0.0,1.0,88,0.00,,---,0.00,VWS V14.01,2013-06-02 06:36:00,
2013-06-02 01:41:00,50.3,46.9,30.16,South,175,0.0,1.0,88,0.00,,---,0.00,VWS V14.01,2013-06-02 06:41:00,
2013-06-02 01:46:00,50.2,47.1,30.16,South,176,0.0,4.0,89,0.00,,---,0.00,VWS V14.01,2013-06-02 06:46:00,
2013-06-02 01:51:00,50.1,47.0,30.16,South,170,0.0,4.0,89,0.00,,---,0.00,VWS V14.01,2013-06-02 06:51:00,
2013-06-02 01:56:00,50.1,47.0,30.16,SSE,156,0.0,4.0,89,0.00,,---,0.00,VWS V14.01,2013-06-02 06:56:00,
2013-06-02 02:01:00,50.0,46.9,30.16,SSE,155,0.0,4.0,89,0.00,,---,0.00,VWS V14.01,2013-06-02 07:01:00,
2013-06-02 02:06:00,49.9,46.8,30.16,SSE,155,3.0,3.0,89,0.00,,---,0.00,VWS V14.01,2013-06-02 07:06:00,
2013-06-02 02:11:00,50.0,47.2,30.16,South,169,1.0,6.0,90,0.00,,---,0.00,VWS V14.01,2013-06-02 07:11:00,
2013-06-02 02:16:00,50.1,47.0,30.16,SSE,157,0.0,6.0,89,0.00,,---,0.00,VWS V14.01,2013-06-02 07:16:00,
2013-06-02 02:21:00,50.1,47.0,30.17,SSW,195,1.0,6.0,89,0.00,,---,0.00,VWS V14.01,2013-06-02 07:21:00,
2013-06-02 02:26:00,50.2,47.1,30.17,SE,138,1.0,6.0,89,0.00,,---,0.00,VWS V14.01,2013-06-02 07:26:00,
2013-06-02 02:31:00,50.2,47.1,30.17,SE,140,0.0,6.0,89,0.00,,---,0.00,VWS V14.01,2013-06-02 07:31:00,
2013-06-02 02:36:00,50.1,47.0,30.17,SE,139,0.0,1.0,89,0.00,,---,0.00,VWS V14.01,2013-06-02 07:36:00,
2013-06-02 02:41:00,49.9,46.8,30.17,SE,140,0.0,1.0,89,0.00,,---,0.00,VWS V14.01,2013-06-02 07:41:00,
2013-06-02 02:46:00,49.7,46.6,30.17,SE,140,1.0,2.0,89,0.00,,---,0.00,VWS V14.01,2013-06-02 07:46:00,
2013-06-02 02:51:00,49.6,46.8,30.17,SE,133,1.0,2.0,90,0.00,,---,0.00,VWS V14.01,2013-06-02 07:51:00,
2013-06-02 02:56:00,49.4,46.6,30.17,SE,134,1.0,3.0,90,0.00,,---,0.00,VWS V14.01,2013-06-02 07:56:00,
2013-06-02 03:01:00,49.3,46.8,30.17,SE,130,1.0,3.0,91,0.00,,---,0.00,VWS V14.01,2013-06-02 08:01:00,
2013-06-02 03:06:00,49.2,46.7,30.17,SE,135,0.0,1.0,91,0.00,,---,0.00,VWS V14.01,2013-06-02 08:06:00,
2013-06-02 03:11:00,49.0,46.5,30.17,SE,135,0.0,2.0,91,0.00,,---,0.00,VWS V14.01,2013-06-02 08:11:00,
2013-06-02 03:16:00,48.9,46.4,30.17,SE,135,0.0,2.0,91,0.00,,---,0.00,VWS V14.01,2013-06-02 08:16:00,
2013-06-02 03:21:00,48.7,46.5,30.17,SE,136,0.0,2.0,92,0.00,,---,0.00,VWS V14.01,2013-06-02 08:21:00,
2013-06-02 03:26:00,48.5,46.3,30.17,SE,135,0.0,2.0,92,0.00,,---,0.00,VWS V14.01,2013-06-02 08:26:00,
2013-06-02 03:31:00,48.3,46.1,30.17,SE,134,1.0,2.0,92,0.00,,---,0.00,VWS V14.01,2013-06-02 08:31:00,
2013-06-02 03:36:00,48.0,46.1,30.17,SE,134,1.0,1.0,93,0.00,,---,0.00,VWS V14.01,2013-06-02 08:36:00,
2013-06-02 03:41:00,47.8,45.9,30.17,SE,134,0.0,1.0,93,0.00,,---,0.00,VWS V14.01,2013-06-02 08:41:00,
2013-06-02 03:46:00,47.7,45.8,30.17,SE,134,0.0,2.0,93,0.00,,---,0.00,VWS V14.01,2013-06-02 08:46:00,
2013-06-02 03:51:00,47.6,45.7,30.17,SE,134,0.0,2.0,93,0.00,,---,0.00,VWS V14.01,2013-06-02 08:51:00,
2013-06-02 03:56:00,47.5,45.9,30.17,SE,135,2.0,3.0,94,0.00,,---,0.00,VWS V14.01,2013-06-02 08:56:00,
2013-06-02 04:01:00,47.5,45.9,30.17,SE,136,1.0,3.0,94,0.00,,---,0.00,VWS V14.01,2013-06-02 09:01:00,
2013-06-02 04:06:00,47.5,45.9,30.17,SE,135,1.0,2.0,94,0.00,,---,0.00,VWS V14.01,2013-06-02 09:06:00,
2013-06-02 04:11:00,47.5,45.9,30.17,SE,135,0.0,2.0,94,0.00,,---,0.00,VWS V14.01,2013-06-02 09:11:00,
2013-06-02 04:16:00,47.5,45.6,30.17,SE,135,0.0,2.0,93,0.00,,---,0.00,VWS V14.01,2013-06-02 09:16:00,
2013-06-02 04:21:00,47.4,45.5,30.17,SE,135,0.0,2.0,93,0.00,,---,0.00,VWS V14.01,2013-06-02 09:21:00,
2013-06-02 04:26:00,47.2,45.3,30.17,SE,135,0.0,2.0,93,0.00,,---,0.00,VWS V14.01,2013-06-02 09:26:00,
2013-06-02 04:31:00,47.0,45.1,30.18,SE,135,0.0,2.0,93,0.00,,---,0.00,VWS V14.01,2013-06-02 09:31:00,
2013-06-02 04:36:00,46.9,45.3,30.18,SE,135,0.0,0.0,94,0.00,,---,0.00,VWS V14.01,2013-06-02 09:36:00,
2013-06-02 04:41:00,46.7,45.1,30.18,SE,135,0.0,0.0,94,0.00,,---,0.00,VWS V14.01,2013-06-02 09:41:00,
2013-06-02 04:46:00,46.6,45.0,30.18,SE,135,0.0,0.0,94,0.00,,---,0.00,VWS V14.01,2013-06-02 09:46:00,
2013-06-02 04:51:00,46.6,45.0,30.18,SE,135,0.0,0.0,94,0.00,,---,0.00,VWS V14.01,2013-06-02 09:51:00,
2013-06-02 04:56:00,46.5,44.9,30.18,SE,135,0.0,0.0,94,0.00,,---,0.00,VWS V14.01,2013-06-02 09:56:00,
2013-06-02 05:01:00,46.4,44.8,30.18,SE,136,0.0,0.0,94,0.00,,---,0.00,VWS V14.01,2013-06-02 10:01:00,
2013-06-02 05:06:00,46.3,44.7,30.18,SE,135,0.0,0.0,94,0.00,,---,0.00,VWS V14.01,2013-06-02 10:06:00,
2013-06-02 05:11:00,46.3,45.0,30.18,SE,135,0.0,0.0,95,0.00,,---,0.00,VWS V14.01,2013-06-02 10:11:00,
2013-06-02 05:16:00,46.3,45.0,30.18,SE,139,0.0,0.0,95,0.00,,---,0.00,VWS V14.01,2013-06-02 10:16:00,
2013-06-02 05:21:00,46.4,44.8,30.18,SE,138,0.0,0.0,94,0.00,,---,0.00,VWS V14.01,2013-06-02 10:21:00,
2013-06-02 05:26:00,46.3,44.7,30.18,SE,140,0.0,2.0,94,0.00,,---,0.00,VWS V14.01,2013-06-02 10:26:00,
2013-06-02 05:31:00,46.3,44.7,30.18,SE,140,0.0,2.0,94,0.00,,---,0.00,VWS V14.01,2013-06-02 10:31:00,
2013-06-02 05:36:00,46.4,44.8,30.18,SE,140,2.0,2.0,94,0.00,,---,0.00,VWS V14.01,2013-06-02 10:36:00,
2013-06-02 05:41:00,46.4,44.8,30.18,SE,138,2.0,3.0,94,0.00,,---,0.00,VWS V14.01,2013-06-02 10:41:00,
2013-06-02 05:46:00,46.4,44.8,30.19,SE,135,2.0,4.0,94,0.00,,---,0.00,VWS V14.01,2013-06-02 10:46:00,
2013-06-02 05:51:00,46.4,44.5,30.19,SE,133,1.0,4.0,93,0.00,,---,0.00,VWS V14.01,2013-06-02 10:51:00,
2013-06-02 05:56:00,46.3,44.7,30.19,SE,132,0.0,4.0,94,0.00,,---,0.00,VWS V14.01,2013-06-02 10:56:00,
2013-06-02 06:01:00,46.3,44.7,30.19,SE,134,2.0,4.0,94,0.00,,---,0.00,VWS V14.01,2013-06-02 11:01:00,
2013-06-02 06:06:00,46.1,44.5,30.19,SE,134,1.0,2.0,94,0.00,,---,0.00,VWS V14.01,2013-06-02 11:06:00,
2013-06-02 06:11:00,46.1,44.5,30.19,SE,133,1.0,3.0,94,0.00,,---,0.00,VWS V14.01,2013-06-02 11:11:00,
2013-06-02 06:16:00,46.0,44.4,30.19,SE,128,0.0,3.0,94,0.00,,---,0.00,VWS V14.01,2013-06-02 11:16:00,
2013-06-02 06:21:00,46.0,44.4,30.19,SE,145,0.0,3.0,94,0.00,,---,0.00,VWS V14.01,2013-06-02 11:21:00,
2013-06-02 06:26:00,46.0,44.4,30.20,SE,146,0.0,3.0,94,0.00,,---,0.00,VWS V14.01,2013-06-02 11:26:00,
2013-06-02 06:31:00,45.9,44.3,30.20,SE,138,0.0,3.0,94,0.00,,---,0.00,VWS V14.01,2013-06-02 11:31:00,
2013-06-02 06:36:00,45.9,44.3,30.20,SE,138,0.0,0.0,94,0.00,,---,0.00,VWS V14.01,2013-06-02 11:36:00,
2013-06-02 06:41:00,46.0,44.4,30.20,SE,138,0.0,0.0,94,0.00,,---,0.00,VWS V14.01,2013-06-02 11:41:00,
2013-06-02 06:46:00,46.1,44.5,30.20,SE,139,1.0,3.0,94,0.00,,---,0.00,VWS V14.01,2013-06-02 11:46:00,
2013-06-02 06:51:00,46.3,44.7,30.20,SE,139,2.0,3.0,94,0.00,,---,0.00,VWS V14.01,2013-06-02 11:51:00,
2013-06-02 06:56:00,46.5,44.9,30.20,SE,135,0.0,4.0,94,0.00,,---,0.00,VWS V14.01,2013-06-02 11:56:00,
2013-06-02 07:01:00,46.8,45.2,30.20,SE,142,2.0,4.0,94,0.00,,---,0.00,VWS V14.01,2013-06-02 12:01:00,
2013-06-02 07:06:00,47.0,45.1,30.20,SSE,152,1.0,3.0,93,0.00,,---,0.00,VWS V14.01,2013-06-02 12:06:00,
2013-06-02 07:11:00,47.3,45.4,30.20,SE,142,2.0,6.0,93,0.00,,---,0.00,VWS V14.01,2013-06-02 12:11:00,
2013-06-02 07:16:00,47.8,45.9,30.20,SE,139,2.0,6.0,93,0.00,,---,0.00,VWS V14.01,2013-06-02 12:16:00,
2013-06-02 07:21:00,48.5,46.3,30.21,SE,139,1.0,6.0,92,0.00,,---,0.00,VWS V14.01,2013-06-02 12:21:00,
2013-06-02 07:26:00,48.8,46.3,30.21,SE,130,0.0,6.0,91,0.00,,---,0.00,VWS V14.01,2013-06-02 12:26:00,
2013-06-02 07:31:00,49.3,46.8,30.21,SE,130,0.0,6.0,91,0.00,,---,0.00,VWS V14.01,2013-06-02 12:31:00,
2013-06-02 07:36:00,49.2,46.1,30.21,SE,137,1.0,4.0,89,0.00,,---,0.00,VWS V14.01,2013-06-02 12:36:00,
2013-06-02 07:41:00,49.1,46.3,30.22,SE,144,4.0,5.0,90,0.00,,---,0.00,VWS V14.01,2013-06-02 12:41:00,
2013-06-02 07:46:00,49.1,46.3,30.22,SE,137,3.0,6.0,90,0.00,,---,0.00,VWS V14.01,2013-06-02 12:46:00,
2013-06-02 07:51:00,49.5,46.7,30.22,SE,146,1.0,6.0,90,0.00,,---,0.00,VWS V14.01,2013-06-02 12:51:00,
2013-06-02 07:56:00,49.9,46.8,30.22,South,170,3.0,7.0,89,0.00,,---,0.00,VWS V14.01,2013-06-02 12:56:00,
2013-06-02 08:01:00,50.4,46.7,30.21,SE,146,2.0,7.0,87,0.00,,---,0.00,VWS V14.01,2013-06-02 13:01:00,
2013-06-02 08:06:00,50.8,47.1,30.22,SE,139,1.0,4.0,87,0.00,,---,0.00,VWS V14.01,2013-06-02 13:06:00,
2013-06-02 08:11:00,51.1,47.4,30.22,SE,134,2.0,6.0,87,0.00,,---,0.00,VWS V14.01,2013-06-02 13:11:00,
2013-06-02 08:16:00,51.6,47.6,30.22,SSE,148,2.0,8.0,86,0.00,,---,0.00,VWS V14.01,2013-06-02 13:16:00,
2013-06-02 08:21:00,52.2,47.8,30.22,South,186,1.0,8.0,85,0.00,,---,0.00,VWS V14.01,2013-06-02 13:21:00,
2013-06-02 08:26:00,52.4,47.7,30.22,South,170,2.0,8.0,84,0.00,,---,0.00,VWS V14.01,2013-06-02 13:26:00,
2013-06-02 08:31:00,52.6,47.6,30.22,SE,137,3.0,8.0,83,0.00,,---,0.00,VWS V14.01,2013-06-02 13:31:00,
2013-06-02 08:36:00,52.7,47.7,30.22,SSW,203,3.0,7.0,83,0.00,,---,0.00,VWS V14.01,2013-06-02 13:36:00,
2013-06-02 08:41:00,52.9,47.6,30.22,SE,137,4.0,7.0,82,0.00,,---,0.00,VWS V14.01,2013-06-02 13:41:00,
2013-06-02 08:46:00,53.2,47.9,30.22,SSE,149,3.0,7.0,82,0.00,,---,0.00,VWS V14.01,2013-06-02 13:46:00,
2013-06-02 08:51:00,53.4,48.0,30.22,South,182,3.0,8.0,82,0.00,,---,0.00,VWS V14.01,2013-06-02 13:51:00,
2013-06-02 08:56:00,53.7,47.7,30.22,SE,143,0.0,8.0,80,0.00,,---,0.00,VWS V14.01,2013-06-02 13:56:00,
2013-06-02 09:01:00,54.1,48.1,30.22,SW,220,4.0,8.0,80,0.00,,---,0.00,VWS V14.01,2013-06-02 14:01:00,
2013-06-02 09:06:00,54.2,47.8,30.21,SSE,159,2.0,5.0,79,0.00,,---,0.00,VWS V14.01,2013-06-02 14:06:00,
2013-06-02 09:11:00,53.9,47.9,30.22,SE,146,1.0,6.0,80,0.00,,---,0.00,VWS V14.01,2013-06-02 14:11:00,
2013-06-02 09:16:00,54.3,48.3,30.21,SW,221,4.0,6.0,80,0.00,,---,0.00,VWS V14.01,2013-06-02 14:16:00,
2013-06-02 09:21:00,54.6,47.9,30.21,South,173,1.0,6.0,78,0.00,,---,0.00,VWS V14.01,2013-06-02 14:21:00,
2013-06-02 09:26:00,55.3,48.6,30.21,South,172,4.0,6.0,78,0.00,,---,0.00,VWS V14.01,2013-06-02 14:26:00,
2013-06-02 09:31:00,55.4,48.0,30.21,SE,134,1.0,6.0,76,0.00,,---,0.00,VWS V14.01,2013-06-02 14:31:00,
2013-06-02 09:36:00,55.5,47.7,30.21,SSE,168,2.0,4.0,75,0.00,,---,0.00,VWS V14.01,2013-06-02 14:36:00,
2013-06-02 09:41:00,55.4,48.3,30.21,SSE,151,1.0,4.0,77,0.00,,---,0.00,VWS V14.01,2013-06-02 14:41:00,
2013-06-02 09:46:00,56.1,48.3,30.21,South,187,2.0,5.0,75,0.00,,---,0.00,VWS V14.01,2013-06-02 14:46:00,
2013-06-02 09:51:00,56.3,47.4,30.20,SSE,149,4.0,6.0,72,0.00,,---,0.00,VWS V14.01,2013-06-02 14:51:00,
2013-06-02 09:56:00,56.6,48.1,30.20,SE,144,1.0,7.0,73,0.00,,---,0.00,VWS V14.01,2013-06-02 14:56:00,
2013-06-02 10:01:00,56.7,46.3,30.20,SSE,154,2.0,7.0,68,0.00,,---,0.00,VWS V14.01,2013-06-02 15:01:00,
2013-06-02 10:06:00,57.1,46.7,30.20,South,180,2.0,6.0,68,0.00,,---,0.00,VWS V14.01,2013-06-02 15:06:00,
2013-06-02 10:11:00,57.1,46.3,30.20,SSE,148,4.0,7.0,67,0.00,,---,0.00,VWS V14.01,2013-06-02 15:11:00,
2013-06-02 10:16:00,57.3,46.8,30.20,South,172,2.0,7.0,68,0.00,,---,0.00,VWS V14.01,2013-06-02 15:16:00,
2013-06-02 10:21:00,57.9,46.6,30.20,SW,232,3.0,7.0,66,0.00,,---,0.00,VWS V14.01,2013-06-02 15:21:00,
2013-06-02 10:26:00,57.9,46.2,30.20,SW,232,6.0,8.0,65,0.00,,---,0.00,VWS V14.01,2013-06-02 15:26:00,
2013-06-02 10:31:00,58.2,46.5,30.20,South,169,6.0,8.0,65,0.00,,---,0.00,VWS V14.01,2013-06-02 15:31:00,
2013-06-02 10:36:00,58.4,45.9,30.20,South,190,4.0,8.0,63,0.00,,---,0.00,VWS V14.01,2013-06-02 15:36:00,
2013-06-02 10:41:00,58.3,45.8,30.20,SSE,165,3.0,8.0,63,0.00,,---,0.00,VWS V14.01,2013-06-02 15:41:00,
2013-06-02 10:46:00,58.2,45.7,30.20,South,177,2.0,8.0,63,0.00,,---,0.00,VWS V14.01,2013-06-02 15:46:00,
2013-06-02 10:51:00,58.6,46.1,30.19,West,271,7.0,11.0,63,0.00,,---,0.00,VWS V14.01,2013-06-02 15:51:00,
2013-06-02 10:56:00,58.8,46.2,30.19,South,180,2.0,11.0,63,0.00,,---,0.00,VWS V14.01,2013-06-02 15:56:00,
2013-06-02 11:01:00,59.4,45.5,30.20,SSE,154,3.0,11.0,60,0.00,,---,0.00,VWS V14.01,2013-06-02 16:01:00,
2013-06-02 11:06:00,59.0,45.6,30.20,WSW,242,5.0,5.0,61,0.00,,---,0.00,VWS V14.01,2013-06-02 16:06:00,
2013-06-02 11:11:00,59.3,46.3,30.20,South,171,4.0,8.0,62,0.00,,---,0.00,VWS V14.01,2013-06-02 16:11:00,
2013-06-02 11:16:00,60.0,46.5,30.20,WSW,255,3.0,8.0,61,0.00,,---,0.00,VWS V14.01,2013-06-02 16:16:00,
2013-06-02 11:21:00,60.2,45.8,30.20,SSE,168,3.0,8.0,59,0.00,,---,0.00,VWS V14.01,2013-06-02 16:21:00,
2013-06-02 11:26:00,60.2,46.3,30.20,SW,221,4.0,8.0,60,0.00,,---,0.00,VWS V14.01,2013-06-02 16:26:00,
2013-06-02 11:31:00,60.1,45.7,30.20,South,180,1.0,8.0,59,0.00,,---,0.00,VWS V14.01,2013-06-02 16:31:00,
2013-06-02 11:36:00,60.3,45.9,30.20,East,92,4.0,6.0,59,0.00,,---,0.00,VWS V14.01,2013-06-02 16:36:00,
2013-06-02 11:41:00,60.2,45.4,30.20,SSE,152,1.0,7.0,58,0.00,,---,0.00,VWS V14.01,2013-06-02 16:41:00,
2013-06-02 11:46:00,60.2,45.4,30.20,SSW,207,3.0,7.0,58,0.00,,---,0.00,VWS V14.01,2013-06-02 16:46:00,
2013-06-02 11:51:00,60.4,45.6,30.20,WSW,248,3.0,7.0,58,0.00,,---,0.00,VWS V14.01,2013-06-02 16:51:00,
2013-06-02 11:55:00,61.0,45.7,30.19,SSE,168,2.0,7.0,57,0.00,,---,0.00,VWS V14.01,2013-06-02 16:55:00,
2013-06-02 12:00:00,61.1,45.3,30.19,SSW,193,2.0,7.0,56,0.00,,---,0.00,VWS V14.01,2013-06-02 17:00:00,
2013-06-02 12:06:00,61.3,45.5,30.19,South,190,7.0,7.0,56,0.00,,---,0.00,VWS V14.01,2013-06-02 17:06:00,
2013-06-02 12:10:00,61.2,44.9,30.19,SE,139,5.0,7.0,55,0.00,,---,0.00,VWS V14.01,2013-06-02 17:10:00,
2013-06-02 12:15:00,62.1,45.8,30.19,SW,234,3.0,7.0,55,0.00,,---,0.00,VWS V14.01,2013-06-02 17:15:00,
2013-06-02 12:20:00,62.6,45.7,30.19,South,185,2.0,7.0,54,0.00,,---,0.00,VWS V14.01,2013-06-02 17:20:00,
2013-06-02 12:25:00,63.0,45.6,30.19,SE,130,2.0,7.0,53,0.00,,---,0.00,VWS V14.01,2013-06-02 17:25:00,
2013-06-02 12:30:00,63.1,45.2,30.19,SE,139,2.0,7.0,52,0.00,,---,0.00,VWS V14.01,2013-06-02 17:30:00,
2013-06-02 12:35:00,63.1,45.2,30.18,SSE,152,2.0,7.0,52,0.00,,---,0.00,VWS V14.01,2013-06-02 17:35:00,
2013-06-02 12:40:00,62.9,46.5,30.18,SSE,149,4.0,9.0,55,0.00,,---,0.00,VWS V14.01,2013-06-02 17:40:00,
2013-06-02 12:45:00,62.8,44.9,30.18,South,184,1.0,9.0,52,0.00,,---,0.00,VWS V14.01,2013-06-02 17:45:00,
2013-06-02 12:50:00,63.0,46.1,30.18,SW,236,4.0,9.0,54,0.00,,---,0.00,VWS V14.01,2013-06-02 17:50:00,
2013-06-02 12:55:00,63.3,44.9,30.17,SSE,155,0.0,9.0,51,0.00,,---,0.00,VWS V14.01,2013-06-02 17:55:00,
2013-06-02 13:00:00,63.9,44.9,30.17,South,171,1.0,9.0,50,0.00,,---,0.00,VWS V14.01,2013-06-02 18:00:00,
2013-06-02 13:05:00,64.2,45.7,30.17,West,260,7.0,7.0,51,0.00,,---,0.00,VWS V14.01,2013-06-02 18:05:00,
2013-06-02 13:10:00,63.7,43.7,30.17,South,173,2.0,9.0,48,0.00,,---,0.00,VWS V14.01,2013-06-02 18:10:00,
2013-06-02 13:15:00,64.0,45.5,30.17,SE,132,2.0,9.0,51,0.00,,---,0.00,VWS V14.01,2013-06-02 18:15:00,
2013-06-02 13:20:00,64.3,44.8,30.17,South,187,1.0,9.0,49,0.00,,---,0.00,VWS V14.01,2013-06-02 18:20:00,
2013-06-02 13:25:00,63.7,43.7,30.16,South,169,1.0,9.0,48,0.00,,---,0.00,VWS V14.01,2013-06-02 18:25:00,
2013-06-02 13:30:00,64.1,45.6,30.16,WSW,237,3.0,9.0,51,0.00,,---,0.00,VWS V14.01,2013-06-02 18:30:00,
2013-06-02 13:35:00,64.3,44.2,30.16,South,179,4.0,5.0,48,0.00,,---,0.00,VWS V14.01,2013-06-02 18:35:00,
2013-06-02 13:40:00,64.3,45.8,30.16,SE,141,4.0,5.0,51,0.00,,---,0.00,VWS V14.01,2013-06-02 18:40:00,
2013-06-02 13:45:00,65.3,45.7,30.16,SE,140,1.0,5.0,49,0.00,,---,0.00,VWS V14.01,2013-06-02 18:45:00,
2013-06-02 13:50:00,65.9,46.2,30.15,South,173,1.0,5.0,49,0.00,,---,0.00,VWS V14.01,2013-06-02 18:50:00,
2013-06-02 13:55:00,66.1,45.9,30.15,SSE,148,2.0,6.0,48,0.00,,---,0.00,VWS V14.01,2013-06-02 18:55:00,
2013-06-02 14:00:00,65.8,43.9,30.15,ESE,123,1.0,6.0,45,0.00,,---,0.00,VWS V14.01,2013-06-02 19:00:00,
2013-06-02 14:05:00,65.5,44.2,30.15,SE,135,1.0,5.0,46,0.00,,---,0.00,VWS V14.01,2013-06-02 19:05:00,
2013-06-02 14:10:00,66.0,44.7,30.15,SSE,168,3.0,6.0,46,0.00,,---,0.00,VWS V14.01,2013-06-02 19:10:00,
2013-06-02 14:15:00,65.4,42.9,30.14,South,173,2.0,7.0,44,0.00,,---,0.00,VWS V14.01,2013-06-02 19:15:00,
2013-06-02 14:20:00,66.0,44.1,30.14,WSW,252,3.0,7.0,45,0.00,,---,0.00,VWS V14.01,2013-06-02 19:20:00,
2013-06-02 14:25:00,66.7,44.1,30.14,NW,307,2.0,7.0,44,0.00,,---,0.00,VWS V14.01,2013-06-02 19:25:00,
2013-06-02 14:30:00,66.4,44.4,30.14,WSW,242,4.0,7.0,45,0.00,,---,0.00,VWS V14.01,2013-06-02 19:30:00,
2013-06-02 14:35:00,66.1,43.6,30.14,SE,139,3.0,6.0,44,0.00,,---,0.00,VWS V14.01,2013-06-02 19:35:00,
2013-06-02 14:40:00,65.8,43.3,30.14,SE,130,1.0,6.0,44,0.00,,---,0.00,VWS V14.01,2013-06-02 19:40:00,
2013-06-02 14:45:00,66.3,43.8,30.14,South,177,1.0,7.0,44,0.00,,---,0.00,VWS V14.01,2013-06-02 19:45:00,
2013-06-02 14:50:00,66.6,44.6,30.14,SSE,150,2.0,7.0,45,0.00,,---,0.00,VWS V14.01,2013-06-02 19:50:00,
2013-06-02 14:55:00,67.0,41.2,30.13,South,180,2.0,7.0,39,0.00,,---,0.00,VWS V14.01,2013-06-02 19:55:00,
2013-06-02 15:00:00,67.2,42.7,30.13,West,262,4.0,7.0,41,0.00,,---,0.00,VWS V14.01,2013-06-02 20:00:00,
2013-06-02 15:05:00,67.3,42.2,30.13,North,2,2.0,3.0,40,0.00,,---,0.00,VWS V14.01,2013-06-02 20:05:00,
2013-06-02 15:10:00,67.6,43.1,30.13,NW,315,0.0,4.0,41,0.00,,---,0.00,VWS V14.01,2013-06-02 20:10:00,
2013-06-02 15:15:00,67.6,41.8,30.13,SW,227,2.0,5.0,39,0.00,,---,0.00,VWS V14.01,2013-06-02 20:15:00,
2013-06-02 15:20:00,67.4,42.9,30.13,SE,130,2.0,5.0,41,0.00,,---,0.00,VWS V14.01,2013-06-02 20:20:00,
2013-06-02 15:25:00,68.3,42.4,30.12,SE,146,3.0,5.0,39,0.00,,---,0.00,VWS V14.01,2013-06-02 20:25:00,
2013-06-02 15:30:00,68.4,42.5,30.12,SSW,196,1.0,5.0,39,0.00,,---,0.00,VWS V14.01,2013-06-02 20:30:00,
2013-06-02 15:35:00,68.5,43.9,30.12,South,170,1.0,2.0,41,0.00,,---,0.00,VWS V14.01,2013-06-02 20:35:00,
2013-06-02 15:40:00,68.6,44.0,30.12,South,170,1.0,4.0,41,0.00,,---,0.00,VWS V14.01,2013-06-02 20:40:00,
2013-06-02 15:45:00,67.8,42.6,30.12,SE,124,1.0,6.0,40,0.00,,---,0.00,VWS V14.01,2013-06-02 20:45:00,
2013-06-02 15:50:00,68.2,43.0,30.11,ENE,78,1.0,6.0,40,0.00,,---,0.00,VWS V14.01,2013-06-02 20:50:00,
2013-06-02 15:55:00,69.0,43.7,30.11,SSW,209,2.0,6.0,40,0.00,,---,0.00,VWS V14.01,2013-06-02 20:55:00,
2013-06-02 16:00:00,69.3,44.0,30.11,SSW,213,1.0,9.0,40,0.00,,---,0.00,VWS V14.01,2013-06-02 21:00:00,
2013-06-02 16:05:00,68.9,42.3,30.11,North,351,2.0,3.0,38,0.00,,---,0.00,VWS V14.01,2013-06-02 21:05:00,
2013-06-02 16:10:00,69.0,42.4,30.10,South,173,1.0,4.0,38,0.00,,---,0.00,VWS V14.01,2013-06-02 21:10:00,
2013-06-02 16:15:00,68.5,41.9,30.10,WSW,242,2.0,5.0,38,0.00,,---,0.00,VWS V14.01,2013-06-02 21:15:00,
2013-06-02 16:20:00,68.9,42.3,30.10,SE,126,2.0,5.0,38,0.00,,---,0.00,VWS V14.01,2013-06-02 21:20:00,
2013-06-02 16:25:00,69.7,42.3,30.10,WSW,239,1.0,5.0,37,0.00,,---,0.00,VWS V14.01,2013-06-02 21:25:00,
2013-06-02 16:30:00,69.4,42.7,30.09,SE,131,0.0,5.0,38,0.00,,---,0.00,VWS V14.01,2013-06-02 21:30:00,
2013-06-02 16:35:00,69.8,42.4,30.09,SSE,160,1.0,2.0,37,0.00,,---,0.00,VWS V14.01,2013-06-02 21:35:00,
2013-06-02 16:40:00,70.6,43.1,30.09,North,356,2.0,5.0,37,0.00,,---,0.00,VWS V14.01,2013-06-02 21:40:00,
2013-06-02 16:45:00,70.1,43.3,30.08,East,87,1.0,5.0,38,0.00,,---,0.00,VWS V14.01,2013-06-02 21:45:00,
2013-06-02 16:50:00,69.9,43.2,30.08,NNE,13,3.0,7.0,38,0.00,,---,0.00,VWS V14.01,2013-06-02 21:50:00,
2013-06-02 16:55:00,69.5,43.5,30.08,North,356,5.0,8.0,39,0.00,,---,0.00,VWS V14.01,2013-06-02 21:55:00,
2013-06-02 17:00:00,69.7,43.7,30.08,NW,317,2.0,8.0,39,0.00,,---,0.00,VWS V14.01,2013-06-02 22:00:00,
2013-06-02 17:05:00,69.8,43.8,30.08,WNW,294,2.0,5.0,39,0.00,,---,0.00,VWS V14.01,2013-06-02 22:05:00,
2013-06-02 17:10:00,69.6,43.6,30.08,SW,234,1.0,5.0,39,0.00,,---,0.00,VWS V14.01,2013-06-02 22:10:00,
2013-06-02 17:15:00,69.1,41.8,30.08,NNE,29,3.0,7.0,37,0.00,,---,0.00,VWS V14.01,2013-06-02 22:15:00,
2013-06-02 17:20:00,69.3,42.6,30.08,East,85,1.0,7.0,38,0.00,,---,0.00,VWS V14.01,2013-06-02 22:20:00,
2013-06-02 17:25:00,70.1,42.7,30.07,NNE,28,1.0,7.0,37,0.00,,---,0.00,VWS V14.01,2013-06-02 22:25:00,
2013-06-02 17:30:00,69.8,40.2,30.07,South,173,0.0,7.0,34,0.00,,---,0.00,VWS V14.01,2013-06-02 22:30:00,
2013-06-02 17:35:00,69.5,39.9,30.07,SW,232,2.0,4.0,34,0.00,,---,0.00,VWS V14.01,2013-06-02 22:35:00,
2013-06-02 17:40:00,69.5,39.9,30.07,NE,49,5.0,5.0,34,0.00,,---,0.00,VWS V14.01,2013-06-02 22:40:00,
2013-06-02 17:45:00,69.9,40.3,30.06,NE,52,1.0,8.0,34,0.00,,---,0.00,VWS V14.01,2013-06-02 22:45:00,
2013-06-02 17:50:00,70.8,41.8,30.06,NW,317,4.0,8.0,35,0.00,,---,0.00,VWS V14.01,2013-06-02 22:50:00,
2013-06-02 17:55:00,70.5,40.8,30.06,North,351,3.0,8.0,34,0.00,,---,0.00,VWS V14.01,2013-06-02 22:55:00,
2013-06-02 18:00:00,70.3,41.4,30.06,SW,215,1.0,8.0,35,0.00,,---,0.00,VWS V14.01,2013-06-02 23:00:00,
2013-06-02 18:05:00,70.2,39.8,30.06,NE,44,1.0,3.0,33,0.00,,---,0.00,VWS V14.01,2013-06-02 23:05:00,
2013-06-02 18:10:00,70.4,41.5,30.06,NE,42,2.0,3.0,35,0.00,,---,0.00,VWS V14.01,2013-06-02 23:10:00,
2013-06-02 18:15:00,70.2,40.5,30.06,ENE,62,1.0,5.0,34,0.00,,---,0.00,VWS V14.01,2013-06-02 23:15:00,
2013-06-02 18:20:00,70.0,41.1,30.06,ESE,103,0.0,5.0,35,0.00,,---,0.00,VWS V14.01,2013-06-02 23:20:00,
2013-06-02 18:25:00,70.7,41.0,30.05,ESE,103,1.0,5.0,34,0.00,,---,0.00,VWS V14.01,2013-06-02 23:25:00,
2013-06-02 18:30:00,71.4,40.8,30.05,East,101,2.0,5.0,33,0.00,,---,0.00,VWS V14.01,2013-06-02 23:30:00,
2013-06-02 18:35:00,71.3,40.0,30.05,NNW,339,1.0,2.0,32,0.00,,---,0.00,VWS V14.01,2013-06-02 23:35:00,
2013-06-02 18:40:00,71.4,40.0,30.05,East,79,1.0,4.0,32,0.00,,---,0.00,VWS V14.01,2013-06-02 23:40:00,
2013-06-02 18:45:00,71.7,40.3,30.05,NNE,23,4.0,6.0,32,0.00,,---,0.00,VWS V14.01,2013-06-02 23:45:00,
2013-06-02 18:50:00,71.4,40.8,30.05,East,97,1.0,6.0,33,0.00,,---,0.00,VWS V14.01,2013-06-02 23:50:00,
2013-06-02 18:55:00,71.4,39.2,30.05,NE,47,3.0,6.0,31,0.00,,---,0.00,VWS V14.01,2013-06-02 23:55:00,
2013-06-02 19:00:00,71.1,39.8,30.05,North,3,3.0,6.0,32,0.00,,---,0.00,VWS V14.01,2013-06-03 00:00:00,
2013-06-02 19:05:00,70.7,38.6,30.05,NE,35,2.0,4.0,31,0.00,,---,0.00,VWS V14.01,2013-06-03 00:05:00,
2013-06-02 19:10:00,70.8,39.5,30.04,NW,304,2.0,4.0,32,0.00,,---,0.00,VWS V14.01,2013-06-03 00:10:00,
2013-06-02 19:15:00,70.8,39.5,30.04,ENE,65,0.0,5.0,32,0.00,,---,0.00,VWS V14.01,2013-06-03 00:15:00,
2013-06-02 19:20:00,70.9,39.6,30.04,NE,41,1.0,5.0,32,0.00,,---,0.00,VWS V14.01,2013-06-03 00:20:00,
2013-06-02 19:25:00,70.7,40.2,30.04,NE,56,1.0,5.0,33,0.00,,---,0.00,VWS V14.01,2013-06-03 00:25:00,
2013-06-02 19:30:00,70.6,40.1,30.04,NE,39,2.0,5.0,33,0.00,,---,0.00,VWS V14.01,2013-06-03 00:30:00,
2013-06-02 19:35:00,70.5,39.2,30.04,North,11,0.0,4.0,32,0.00,,---,0.00,VWS V14.01,2013-06-03 00:35:00,
2013-06-02 19:40:00,70.9,40.4,30.04,ENE,64,3.0,4.0,33,0.00,,---,0.00,VWS V14.01,2013-06-03 00:40:00,
2013-06-02 19:45:00,70.6,40.1,30.04,North,4,2.0,7.0,33,0.00,,---,0.00,VWS V14.01,2013-06-03 00:45:00,
2013-06-02 19:50:00,70.2,39.8,30.04,ENE,60,1.0,7.0,33,0.00,,---,0.00,VWS V14.01,2013-06-03 00:50:00,
2013-06-02 19:55:00,70.2,39.8,30.04,ENE,76,2.0,7.0,33,0.00,,---,0.00,VWS V14.01,2013-06-03 00:55:00,
2013-06-02 20:00:00,70.3,39.9,30.04,North,356,3.0,7.0,33,0.00,,---,0.00,VWS V14.01,2013-06-03 01:00:00,
2013-06-02 20:05:00,70.1,39.7,30.04,East,90,1.0,3.0,33,0.00,,---,0.00,VWS V14.01,2013-06-03 01:05:00,
2013-06-02 20:10:00,69.9,39.5,30.04,NE,47,1.0,5.0,33,0.00,,---,0.00,VWS V14.01,2013-06-03 01:10:00,
2013-06-02 20:15:00,69.8,39.4,30.04,NE,49,2.0,5.0,33,0.00,,---,0.00,VWS V14.01,2013-06-03 01:15:00,
2013-06-02 20:20:00,69.7,40.1,30.04,ENE,67,2.0,5.0,34,0.00,,---,0.00,VWS V14.01,2013-06-03 01:20:00,
2013-06-02 20:25:00,69.3,39.0,30.04,North,7,3.0,5.0,33,0.00,,---,0.00,VWS V14.01,2013-06-03 01:25:00,
2013-06-02 20:30:00,68.8,39.3,30.04,ENE,66,2.0,5.0,34,0.00,,---,0.00,VWS V14.01,2013-06-03 01:30:00,
2013-06-02 20:35:00,68.2,39.5,30.04,East,81,0.0,4.0,35,0.00,,---,0.00,VWS V14.01,2013-06-03 01:35:00,
2013-06-02 20:40:00,67.5,40.3,30.04,NNE,18,2.0,4.0,37,0.00,,---,0.00,VWS V14.01,2013-06-03 01:40:00,
2013-06-02 20:45:00,66.9,40.5,30.04,ENE,78,2.0,4.0,38,0.00,,---,0.00,VWS V14.01,2013-06-03 01:45:00,
2013-06-02 20:50:00,66.4,40.7,30.04,ENE,67,2.0,4.0,39,0.00,,---,0.00,VWS V14.01,2013-06-03 01:50:00,
2013-06-02 20:55:00,65.8,41.5,30.04,ENE,67,0.0,4.0,41,0.00,,---,0.00,VWS V14.01,2013-06-03 01:55:00,
2013-06-02 21:00:00,65.4,41.7,30.03,East,83,2.0,4.0,42,0.00,,---,0.00,VWS V14.01,2013-06-03 02:00:00,
2013-06-02 21:05:00,65.0,42.0,30.03,ENE,66,0.0,2.0,43,0.00,,---,0.00,VWS V14.01,2013-06-03 02:05:00,
2013-06-02 21:10:00,64.6,42.8,30.03,NNE,28,2.0,3.0,45,0.00,,---,0.00,VWS V14.01,2013-06-03 02:10:00,
2013-06-02 21:15:00,64.2,43.0,30.03,NNE,28,2.0,4.0,46,0.00,,---,0.00,VWS V14.01,2013-06-03 02:15:00,
2013-06-02 21:20:00,63.9,43.3,30.03,ENE,58,1.0,4.0,47,0.00,,---,0.00,VWS V14.01,2013-06-03 02:20:00,
2013-06-02 21:25:00,63.5,43.5,30.03,ENE,67,0.0,4.0,48,0.00,,---,0.00,VWS V14.01,2013-06-03 02:25:00,
2013-06-02 21:30:00,63.2,43.2,30.03,East,87,1.0,4.0,48,0.00,,---,0.00,VWS V14.01,2013-06-03 02:30:00,
2013-06-02 21:35:00,63.0,43.0,30.03,NE,51,2.0,3.0,48,0.00,,---,0.00,VWS V14.01,2013-06-03 02:35:00,
2013-06-02 21:40:00,62.8,43.4,30.03,ENE,58,2.0,3.0,49,0.00,,---,0.00,VWS V14.01,2013-06-03 02:40:00,
2013-06-02 21:45:00,62.6,43.2,30.03,North,350,1.0,3.0,49,0.00,,---,0.00,VWS V14.01,2013-06-03 02:45:00,
2013-06-02 21:50:00,62.4,43.0,30.03,ENE,63,0.0,4.0,49,0.00,,---,0.00,VWS V14.01,2013-06-03 02:50:00,
2013-06-02 21:55:00,62.1,43.3,30.03,NE,56,2.0,4.0,50,0.00,,---,0.00,VWS V14.01,2013-06-03 02:55:00,
2013-06-02 22:00:00,61.9,43.6,30.03,East,87,0.0,4.0,51,0.00,,---,0.00,VWS V14.01,2013-06-03 03:00:00,
2013-06-02 22:05:00,61.7,43.4,30.03,NE,35,1.0,1.0,51,0.00,,---,0.00,VWS V14.01,2013-06-03 03:05:00,
2013-06-02 22:10:00,61.6,43.3,30.03,ENE,73,0.0,3.0,51,0.00,,---,0.00,VWS V14.01,2013-06-03 03:10:00,
2013-06-02 22:15:00,61.5,43.2,30.03,ENE,74,0.0,3.0,51,0.00,,---,0.00,VWS V14.01,2013-06-03 03:15:00,
2013-06-02 22:20:00,61.2,42.4,30.03,ENE,74,0.0,3.0,50,0.00,,---,0.00,VWS V14.01,2013-06-03 03:20:00,
2013-06-02 22:25:00,61.0,42.2,30.03,NE,50,1.0,3.0,50,0.00,,---,0.00,VWS V14.01,2013-06-03 03:25:00,
2013-06-02 22:30:00,60.9,41.6,30.03,ENE,68,1.0,3.0,49,0.00,,---,0.00,VWS V14.01,2013-06-03 03:30:00,
2013-06-02 22:35:00,60.9,41.6,30.03,ENE,76,2.0,4.0,49,0.00,,---,0.00,VWS V14.01,2013-06-03 03:35:00,
2013-06-02 22:40:00,60.9,41.1,30.03,NNE,29,2.0,5.0,48,0.00,,---,0.00,VWS V14.01,2013-06-03 03:40:00,
2013-06-02 22:45:00,60.9,41.1,30.03,NNE,30,0.0,7.0,48,0.00,,---,0.00,VWS V14.01,2013-06-03 03:45:00,
2013-06-02 22:50:00,60.8,41.5,30.03,North,351,3.0,7.0,49,0.00,,---,0.00,VWS V14.01,2013-06-03 03:50:00,
2013-06-02 22:55:00,60.7,41.5,30.02,ENE,66,0.0,7.0,49,0.00,,---,0.00,VWS V14.01,2013-06-03 03:55:00,
2013-06-02 23:00:00,60.5,41.3,30.03,ENE,66,3.0,7.0,49,0.00,,---,0.00,VWS V14.01,2013-06-03 04:00:00,
2013-06-02 23:01:00,60.5,41.3,30.03,NE,40,1.0,7.0,49,0.00,,---,0.00,VWS V14.01,2013-06-03 04:01:00,
2013-06-02 23:06:00,60.3,41.1,30.03,ENE,63,1.0,4.0,49,0.00,,---,0.00,VWS V14.01,2013-06-03 04:06:00,
2013-06-02 23:11:00,60.1,41.4,30.03,East,87,1.0,6.0,50,0.00,,---,0.00,VWS V14.01,2013-06-03 04:11:00,
2013-06-02 23:16:00,59.9,41.2,30.03,NNW,339,2.0,6.0,50,0.00,,---,0.00,VWS V14.01,2013-06-03 04:16:00,
2013-06-02 23:21:00,59.7,41.6,30.03,NE,56,1.0,6.0,51,0.00,,---,0.00,VWS V14.01,2013-06-03 04:21:00,
2013-06-02 23:26:00,59.5,41.4,30.03,NE,47,1.0,6.0,51,0.00,,---,0.00,VWS V14.01,2013-06-03 04:26:00,
2013-06-02 23:31:00,59.2,41.6,30.03,NE,49,2.0,6.0,52,0.00,,---,0.00,VWS V14.01,2013-06-03 04:31:00,
2013-06-02 23:36:00,59.1,42.0,30.02,North,10,2.0,4.0,53,0.00,,---,0.00,VWS V14.01,2013-06-03 04:36:00,
2013-06-02 23:42:00,58.9,42.3,30.02,NNW,345,1.0,7.0,54,0.00,,---,0.00,VWS V14.01,2013-06-03 04:42:00,
2013-06-02 23:47:00,58.8,42.2,30.02,North,352,2.0,7.0,54,0.00,,---,0.00,VWS V14.01,2013-06-03 04:47:00,
2013-06-02 23:52:00,58.6,42.5,30.02,North,2,4.0,7.0,55,0.00,,---,0.00,VWS V14.01,2013-06-03 04:52:00,
2013-06-02 23:57:00,58.5,42.9,30.02,NE,56,2.0,7.0,56,0.00,,---,0.00,VWS V14.01,2013-06-03 04:57:00,